SKW39Q PANC-PAJN

Flight info

Callsign SKW39Q
Flight time 1h 17m
Altitude 33000
Route PANC/07L N0461F350 DCT JOH J501 YAK DCT FAKES DCT ASORT DCT PAJN/26
Aircraft CRJ9/M-V/N

Departure

Time 2026-05-04 21:44
Airport Ted Stevens Anchorage International Airport (PANC)

Arrival

Time 2026-05-04 23:02
Airport Juneau International Airport (PAJN)
Time Latitude Longitude Altitude Speed Heading
2026-05-04 21:33 61.17391 -149.99050 137 ft 0 kts 70°
2026-05-04 21:36 61.17391 -149.99051 137 ft 0 kts 70°
2026-05-04 21:39 61.17392 -149.99045 131 ft 2 kts 70°
2026-05-04 21:39 61.17399 -149.98993 128 ft 4 kts 84°
2026-05-04 21:39 61.17393 -149.98929 128 ft 6 kts 118°
2026-05-04 21:40 61.17343 -149.98861 130 ft 13 kts 159°
2026-05-04 21:40 61.17220 -149.98772 131 ft 22 kts 161°
2026-05-04 21:40 61.17082 -149.98673 130 ft 4 kts 160°
2026-05-04 21:40 61.17073 -149.98667 129 ft 0 kts 160°
2026-05-04 21:42 61.17065 -149.98660 129 ft 5 kts 160°
2026-05-04 21:43 61.16997 -149.98601 130 ft 14 kts 138°
2026-05-04 21:43 61.16979 -149.98548 132 ft 1 kts 92°
2026-05-04 21:43 61.16978 -149.98499 129 ft 6 kts 91°
2026-05-04 21:43 61.16975 -149.98249 131 ft 44 kts 93°
2026-05-04 21:44 61.16982 -149.97135 137 ft 109 kts 89°
2026-05-04 21:44 61.16979 -149.95191 123 ft 158 kts 90°
2026-05-04 21:44 61.16968 -149.92768 465 ft 174 kts 91°
2026-05-04 21:44 61.16692 -149.90357 1243 ft 171 kts 112°
2026-05-04 21:45 61.16083 -149.88282 2146 ft 168 kts 120°
2026-05-04 21:45 61.15423 -149.86238 2816 ft 172 kts 122°
2026-05-04 21:45 61.14769 -149.84151 3568 ft 174 kts 120°
2026-05-04 21:45 61.14358 -149.82704 4004 ft 178 kts 118°
2026-05-04 21:46 61.13755 -149.80447 4648 ft 185 kts 120°
2026-05-04 21:46 61.13099 -149.78090 5395 ft 186 kts 119°
2026-05-04 21:46 61.12477 -149.75811 6406 ft 183 kts 122°
2026-05-04 21:46 61.11756 -149.73433 6792 ft 206 kts 124°
2026-05-04 21:47 61.10962 -149.70813 7282 ft 223 kts 123°
2026-05-04 21:47 61.10127 -149.67996 7835 ft 236 kts 123°
2026-05-04 21:47 61.09279 -149.65007 8514 ft 244 kts 124°
2026-05-04 21:47 61.08370 -149.62020 9298 ft 247 kts 128°
2026-05-04 21:48 61.07420 -149.59019 10091 ft 253 kts 124°
2026-05-04 21:48 61.06859 -149.55380 10469 ft 286 kts 101°
2026-05-04 21:48 61.06717 -149.51149 10838 ft 303 kts 102°
2026-05-04 21:48 61.06445 -149.46745 11299 ft 315 kts 106°
2026-05-04 21:49 61.05956 -149.42307 11909 ft 320 kts 111°
2026-05-04 21:49 61.05269 -149.37944 12674 ft 320 kts 116°
2026-05-04 21:49 61.04437 -149.33653 13375 ft 324 kts 118°
2026-05-04 21:49 61.03550 -149.29362 14114 ft 327 kts 118°
2026-05-04 21:50 61.02684 -149.25010 14804 ft 329 kts 118°
2026-05-04 21:50 61.01839 -149.20680 15388 ft 330 kts 117°
2026-05-04 21:50 61.00986 -149.16262 15986 ft 332 kts 117°
2026-05-04 21:50 61.00131 -149.11830 16644 ft 334 kts 118°
2026-05-04 21:51 60.99267 -149.07371 17311 ft 336 kts 118°
2026-05-04 21:51 60.98393 -149.02873 17792 ft 340 kts 118°
2026-05-04 21:51 60.97514 -148.98367 18448 ft 340 kts 118°
2026-05-04 21:51 60.96627 -148.93817 18871 ft 343 kts 118°
2026-05-04 21:52 60.95730 -148.89253 19393 ft 344 kts 118°
2026-05-04 21:52 60.94824 -148.84662 19812 ft 348 kts 118°
2026-05-04 21:52 60.93911 -148.80023 20287 ft 351 kts 118°
2026-05-04 21:52 60.92987 -148.75344 20702 ft 354 kts 118°
2026-05-04 21:53 60.92053 -148.70637 21108 ft 357 kts 118°
2026-05-04 21:53 60.91111 -148.65901 21519 ft 360 kts 118°
2026-05-04 21:53 60.90161 -148.61120 21925 ft 363 kts 118°
2026-05-04 21:53 60.89204 -148.56302 22342 ft 365 kts 118°
2026-05-04 21:54 60.88237 -148.51450 22759 ft 368 kts 118°
2026-05-04 21:54 60.87260 -148.46567 23148 ft 372 kts 117°
2026-05-04 21:54 60.86272 -148.41646 23529 ft 374 kts 118°
2026-05-04 21:54 60.85276 -148.36702 23869 ft 376 kts 118°
2026-05-04 21:55 60.84279 -148.31740 24218 ft 377 kts 118°
2026-05-04 21:55 60.83277 -148.26764 24537 ft 378 kts 118°
2026-05-04 21:55 60.82271 -148.21784 24851 ft 379 kts 118°
2026-05-04 21:55 60.81258 -148.16787 25159 ft 380 kts 118°
2026-05-04 21:56 60.80239 -148.11779 25438 ft 382 kts 118°
2026-05-04 21:56 60.79212 -148.06751 25763 ft 382 kts 119°
2026-05-04 21:56 60.78185 -148.01733 26073 ft 383 kts 119°
2026-05-04 21:56 60.77153 -147.96689 26351 ft 385 kts 119°
2026-05-04 21:57 60.76117 -147.91639 26624 ft 386 kts 119°
2026-05-04 21:57 60.75076 -147.86577 26898 ft 387 kts 120°
2026-05-04 21:57 60.74028 -147.81502 27165 ft 388 kts 120°
2026-05-04 21:57 60.72989 -147.76487 27419 ft 389 kts 120°
2026-05-04 21:58 60.71931 -147.71394 27675 ft 390 kts 120°
2026-05-04 21:58 60.70868 -147.66284 27922 ft 391 kts 120°
2026-05-04 21:58 60.69801 -147.61167 28163 ft 392 kts 120°
2026-05-04 21:58 60.68730 -147.56041 28394 ft 393 kts 120°
2026-05-04 21:59 60.67653 -147.50899 28628 ft 394 kts 120°
2026-05-04 21:59 60.66571 -147.45751 28847 ft 395 kts 120°
2026-05-04 21:59 60.65483 -147.40585 29083 ft 396 kts 121°
2026-05-04 21:59 60.64392 -147.35418 29306 ft 398 kts 121°
2026-05-04 22:00 60.63295 -147.30237 29540 ft 399 kts 121°
2026-05-04 22:00 60.62193 -147.25046 29737 ft 400 kts 121°
2026-05-04 22:00 60.61087 -147.19841 29930 ft 401 kts 121°
2026-05-04 22:00 60.59974 -147.14630 30122 ft 402 kts 121°
2026-05-04 22:01 60.58857 -147.09408 30277 ft 403 kts 121°
2026-05-04 22:01 60.57735 -147.04176 30435 ft 404 kts 121°
2026-05-04 22:01 60.56607 -146.98933 30570 ft 405 kts 121°
2026-05-04 22:01 60.55473 -146.93670 30725 ft 406 kts 122°
2026-05-04 22:02 60.54334 -146.88399 30876 ft 407 kts 122°
2026-05-04 22:02 60.53192 -146.83124 31031 ft 408 kts 122°
2026-05-04 22:02 60.52061 -146.77914 31152 ft 409 kts 122°
2026-05-04 22:02 60.50909 -146.72623 31283 ft 410 kts 122°
2026-05-04 22:03 60.49751 -146.67317 31396 ft 411 kts 122°
2026-05-04 22:03 60.48589 -146.62017 31516 ft 413 kts 120°
2026-05-04 22:03 60.47624 -146.56476 31599 ft 422 kts 115°
2026-05-04 22:04 60.46410 -146.44697 31894 ft 429 kts 110°
2026-05-04 22:04 60.45181 -146.32900 32099 ft 427 kts 112°
2026-05-04 22:04 60.44508 -146.27037 32239 ft 427 kts 112°
2026-05-04 22:05 60.43845 -146.21172 32378 ft 427 kts 112°
2026-05-04 22:05 60.42507 -146.09406 32566 ft 429 kts 112°
2026-05-04 22:05 60.41835 -146.03524 32699 ft 429 kts 112°
2026-05-04 22:06 60.41160 -145.97647 32863 ft 429 kts 113°
2026-05-04 22:06 60.40482 -145.91779 32984 ft 429 kts 113°
2026-05-04 22:06 60.39799 -145.85886 33039 ft 431 kts 113°
2026-05-04 22:07 60.38421 -145.74043 33078 ft 434 kts 113°
2026-05-04 22:07 60.37024 -145.62172 33085 ft 435 kts 113°
2026-05-04 22:08 60.35612 -145.50256 33088 ft 437 kts 113°
2026-05-04 22:08 60.34190 -145.38365 33089 ft 440 kts 113°
2026-05-04 22:09 60.32749 -145.26329 33089 ft 442 kts 114°
2026-05-04 22:09 60.31261 -145.14258 33090 ft 445 kts 113°
2026-05-04 22:10 60.29781 -145.02114 33076 ft 447 kts 113°
2026-05-04 22:10 60.28278 -144.89924 33081 ft 449 kts 114°
2026-05-04 22:11 60.26755 -144.77692 33078 ft 451 kts 114°
2026-05-04 22:11 60.25208 -144.65428 33075 ft 453 kts 114°
2026-05-04 22:12 60.23647 -144.53126 33087 ft 455 kts 114°
2026-05-04 22:12 60.22072 -144.40769 33086 ft 457 kts 114°
2026-05-04 22:13 60.20478 -144.28371 33088 ft 459 kts 114°
2026-05-04 22:13 60.18860 -144.15928 33082 ft 461 kts 114°
2026-05-04 22:14 60.17227 -144.03445 33070 ft 462 kts 114°
2026-05-04 22:14 60.15577 -143.90945 33072 ft 464 kts 114°
2026-05-04 22:15 60.13921 -143.78505 33091 ft 465 kts 114°
2026-05-04 22:15 60.12236 -143.65949 33074 ft 467 kts 114°
2026-05-04 22:16 60.10535 -143.53369 33079 ft 468 kts 115°
2026-05-04 22:16 60.08813 -143.40755 33077 ft 470 kts 115°
2026-05-04 22:17 60.07078 -143.28118 33077 ft 471 kts 115°
2026-05-04 22:17 60.05321 -143.15453 33076 ft 473 kts 115°
2026-05-04 22:18 60.03549 -143.02756 33075 ft 474 kts 115°
2026-05-04 22:18 60.01759 -142.90038 33074 ft 476 kts 115°
2026-05-04 22:19 59.99953 -142.77301 33074 ft 477 kts 115°
2026-05-04 22:19 59.98128 -142.64545 33076 ft 478 kts 115°
2026-05-04 22:20 59.96285 -142.51760 33074 ft 480 kts 115°
2026-05-04 22:20 59.94424 -142.38948 33077 ft 481 kts 115°
2026-05-04 22:21 59.92546 -142.26109 33073 ft 483 kts 115°
2026-05-04 22:21 59.90662 -142.13335 33078 ft 484 kts 115°
2026-05-04 22:22 59.88748 -142.00447 33080 ft 486 kts 115°
2026-05-04 22:22 59.86811 -141.87525 33083 ft 487 kts 115°
2026-05-04 22:23 59.84857 -141.74579 33084 ft 489 kts 115°
2026-05-04 22:23 59.82886 -141.61629 33086 ft 490 kts 115°
2026-05-04 22:24 59.80899 -141.48647 33087 ft 492 kts 115°
2026-05-04 22:24 59.78890 -141.35646 33095 ft 493 kts 115°
2026-05-04 22:25 59.76863 -141.22622 33094 ft 494 kts 116°
2026-05-04 22:25 59.74819 -141.09574 33091 ft 496 kts 116°
2026-05-04 22:26 59.72758 -140.96518 33092 ft 497 kts 116°
2026-05-04 22:26 59.70673 -140.83433 33096 ft 498 kts 116°
2026-05-04 22:27 59.68574 -140.70335 33100 ft 500 kts 116°
2026-05-04 22:27 59.66455 -140.57218 33102 ft 501 kts 116°
2026-05-04 22:28 59.64318 -140.44083 33104 ft 502 kts 116°
2026-05-04 22:28 59.62164 -140.30935 33110 ft 504 kts 116°
2026-05-04 22:29 59.59987 -140.17756 33120 ft 505 kts 116°
2026-05-04 22:29 59.57793 -140.04566 33128 ft 506 kts 116°
2026-05-04 22:30 59.55595 -139.91449 33128 ft 508 kts 116°
2026-05-04 22:30 59.53364 -139.78232 33128 ft 509 kts 116°
2026-05-04 22:31 59.50929 -139.65191 33128 ft 503 kts 122°
2026-05-04 22:31 59.47843 -139.52879 33140 ft 500 kts 127°
2026-05-04 22:32 59.44439 -139.40979 33133 ft 500 kts 127°
2026-05-04 22:32 59.41047 -139.29016 33134 ft 502 kts 127°
2026-05-04 22:33 59.37671 -139.17002 33127 ft 503 kts 127°
2026-05-04 22:33 59.34275 -139.04984 33123 ft 505 kts 127°
2026-05-04 22:34 59.30860 -138.92955 33124 ft 506 kts 127°
2026-05-04 22:34 59.27986 -138.82879 33123 ft 507 kts 127°
2026-05-04 22:35 59.23977 -138.68896 33128 ft 508 kts 127°
2026-05-04 22:35 59.21093 -138.58893 33130 ft 509 kts 127°
2026-05-04 22:36 59.17608 -138.46853 33130 ft 510 kts 127°
2026-05-04 22:36 59.14103 -138.34818 33130 ft 511 kts 127°
2026-05-04 22:37 59.10582 -138.22785 33134 ft 512 kts 127°
2026-05-04 22:37 59.07041 -138.10747 33155 ft 511 kts 126°
2026-05-04 22:38 59.03597 -137.98867 33140 ft 492 kts 126°
2026-05-04 22:38 59.01981 -137.93202 33115 ft 466 kts 127°
2026-05-04 22:38 59.00367 -137.87777 33108 ft 465 kts 128°
2026-05-04 22:39 58.97108 -137.76907 33105 ft 467 kts 127°
2026-05-04 22:39 58.93840 -137.66023 33119 ft 468 kts 127°
2026-05-04 22:40 58.90574 -137.55191 33129 ft 470 kts 128°
2026-05-04 22:40 58.88937 -137.49770 32927 ft 461 kts 127°
2026-05-04 22:40 58.87335 -137.44479 32326 ft 451 kts 128°
2026-05-04 22:40 58.85760 -137.39285 31761 ft 443 kts 128°
2026-05-04 22:41 58.84209 -137.34190 30962 ft 441 kts 128°
2026-05-04 22:41 58.82659 -137.29117 30345 ft 436 kts 127°
2026-05-04 22:41 58.81118 -137.24099 29665 ft 433 kts 128°
2026-05-04 22:41 58.79599 -137.19127 28911 ft 428 kts 128°
2026-05-04 22:42 58.78084 -137.14213 28254 ft 423 kts 127°
2026-05-04 22:42 58.76602 -137.09381 27767 ft 414 kts 127°
2026-05-04 22:42 58.75137 -137.04638 26770 ft 410 kts 128°
2026-05-04 22:42 58.73687 -136.99945 25901 ft 406 kts 127°
2026-05-04 22:43 58.72253 -136.95307 25038 ft 401 kts 127°
2026-05-04 22:43 58.70830 -136.90723 24233 ft 397 kts 127°
2026-05-04 22:43 58.69422 -136.86193 23398 ft 393 kts 127°
2026-05-04 22:43 58.68027 -136.81723 22575 ft 387 kts 127°
2026-05-04 22:44 58.66649 -136.77308 22069 ft 383 kts 127°
2026-05-04 22:44 58.65287 -136.72941 21549 ft 379 kts 127°
2026-05-04 22:44 58.63934 -136.68624 21047 ft 375 kts 127°
2026-05-04 22:44 58.62592 -136.64355 20533 ft 371 kts 127°
2026-05-04 22:45 58.61266 -136.60128 20067 ft 369 kts 127°
2026-05-04 22:45 58.58630 -136.51769 19099 ft 364 kts 127°
2026-05-04 22:45 58.57328 -136.47639 18702 ft 359 kts 126°
2026-05-04 22:46 58.56038 -136.43559 18218 ft 356 kts 126°
2026-05-04 22:46 58.54757 -136.39512 17678 ft 354 kts 126°
2026-05-04 22:46 58.53483 -136.35508 17194 ft 351 kts 126°
2026-05-04 22:46 58.52223 -136.31536 16741 ft 348 kts 126°
2026-05-04 22:47 58.50967 -136.27601 16274 ft 345 kts 126°
2026-05-04 22:47 58.49722 -136.23702 15735 ft 341 kts 126°
2026-05-04 22:47 58.48511 -136.19913 15366 ft 328 kts 126°
2026-05-04 22:47 58.47355 -136.16297 15008 ft 318 kts 125°
2026-05-04 22:48 58.46211 -136.12736 14532 ft 312 kts 126°
2026-05-04 22:48 58.45075 -136.09215 13989 ft 310 kts 125°
2026-05-04 22:48 58.43950 -136.05723 13414 ft 308 kts 125°
2026-05-04 22:48 58.42834 -136.02260 12845 ft 305 kts 124°
2026-05-04 22:49 58.41725 -135.98817 12289 ft 303 kts 124°
2026-05-04 22:49 58.40624 -135.95408 11863 ft 301 kts 124°
2026-05-04 22:49 58.39529 -135.92015 11504 ft 300 kts 124°
2026-05-04 22:49 58.38434 -135.88640 11154 ft 298 kts 124°
2026-05-04 22:50 58.37344 -135.85280 10797 ft 297 kts 124°
2026-05-04 22:50 58.36508 -135.81692 10359 ft 300 kts 103°
2026-05-04 22:50 58.36223 -135.77766 9850 ft 297 kts 96°
2026-05-04 22:50 58.36122 -135.73922 9644 ft 283 kts 92°
2026-05-04 22:51 58.36132 -135.70269 9489 ft 269 kts 90°
2026-05-04 22:51 58.36177 -135.66779 9307 ft 258 kts 90°
2026-05-04 22:51 58.36200 -135.63413 9054 ft 252 kts 91°
2026-05-04 22:51 58.36187 -135.60090 8671 ft 250 kts 92°
2026-05-04 22:52 58.36159 -135.56798 8337 ft 246 kts 91°
2026-05-04 22:52 58.36136 -135.53543 7929 ft 246 kts 91°
2026-05-04 22:52 58.36118 -135.50293 7617 ft 245 kts 91°
2026-05-04 22:52 58.36097 -135.47054 7331 ft 243 kts 91°
2026-05-04 22:53 58.36077 -135.43966 7212 ft 226 kts 91°
2026-05-04 22:53 58.36056 -135.41062 6922 ft 221 kts 91°
2026-05-04 22:53 58.36034 -135.38150 6542 ft 220 kts 91°
2026-05-04 22:53 58.36011 -135.35256 6142 ft 217 kts 91°
2026-05-04 22:54 58.35988 -135.32410 5776 ft 214 kts 92°
2026-05-04 22:54 58.35966 -135.29583 5428 ft 212 kts 93°
2026-05-04 22:54 58.35927 -135.26787 5134 ft 210 kts 91°
2026-05-04 22:54 58.35891 -135.24014 4822 ft 208 kts 93°
2026-05-04 22:55 58.35861 -135.21349 4541 ft 200 kts 91°
2026-05-04 22:55 58.35841 -135.18680 4130 ft 201 kts 92°
2026-05-04 22:55 58.35818 -135.16042 3799 ft 198 kts 91°
2026-05-04 22:55 58.35792 -135.13447 3490 ft 194 kts 91°
2026-05-04 22:56 58.35760 -135.10900 3152 ft 191 kts 92°
2026-05-04 22:56 58.35708 -135.08367 2780 ft 190 kts 90°
2026-05-04 22:56 58.35695 -135.05917 2629 ft 181 kts 90°
2026-05-04 22:56 58.35691 -135.03552 2542 ft 176 kts 89°
2026-05-04 22:57 58.35692 -135.01303 2481 ft 168 kts 89°
2026-05-04 22:57 58.35691 -134.98976 2503 ft 182 kts 89°
2026-05-04 22:57 58.35692 -134.96524 2523 ft 184 kts 89°
2026-05-04 22:57 58.35693 -134.94117 2506 ft 179 kts 89°
2026-05-04 22:58 58.35702 -134.91894 2519 ft 158 kts 88°
2026-05-04 22:58 58.35709 -134.89810 2507 ft 160 kts 89°
2026-05-04 22:58 58.35710 -134.87629 2492 ft 167 kts 88°
2026-05-04 22:58 58.35730 -134.85468 2510 ft 158 kts 86°
2026-05-04 22:59 58.35937 -134.83393 2294 ft 160 kts 75°
2026-05-04 22:59 58.36184 -134.81328 2107 ft 163 kts 77°
2026-05-04 22:59 58.36424 -134.79201 1862 ft 166 kts 79°
2026-05-04 22:59 58.36551 -134.76974 1599 ft 170 kts 84°
2026-05-04 23:00 58.36625 -134.74720 1374 ft 171 kts 92°
2026-05-04 23:00 58.36504 -134.72515 1248 ft 163 kts 96°
2026-05-04 23:00 58.36373 -134.70454 1088 ft 153 kts 95°
2026-05-04 23:00 58.36226 -134.68479 877 ft 152 kts 103°
2026-05-04 23:01 58.36060 -134.66428 722 ft 162 kts 95°
2026-05-04 23:01 58.36021 -134.64275 569 ft 162 kts 92°
2026-05-04 23:01 58.35995 -134.62202 304 ft 152 kts 94°
2026-05-04 23:01 58.35860 -134.60191 116 ft 160 kts 105°
2026-05-04 23:02 58.35573 -134.58183 30 ft 137 kts 104°
2026-05-04 23:02 58.35386 -134.56848 31 ft 51 kts 102°
2026-05-04 23:02 58.35411 -134.56645 31 ft 14 kts 357°
2026-05-04 23:02 58.35489 -134.56775 32 ft 14 kts 291°
2026-05-04 23:03 58.35514 -134.56950 32 ft 14 kts 283°
2026-05-04 23:03 58.35541 -134.57149 32 ft 17 kts 284°
2026-05-04 23:03 58.35574 -134.57384 32 ft 20 kts 285°
2026-05-04 23:03 58.35612 -134.57654 32 ft 23 kts 285°
2026-05-04 23:04 58.35653 -134.57954 32 ft 24 kts 285°
2026-05-04 23:04 58.35699 -134.58249 32 ft 21 kts 301°
2026-05-04 23:04 58.35788 -134.58300 32 ft 13 kts
2026-05-04 23:04 58.35827 -134.58300 32 ft 0 kts 360°